Back to catalog

STARLINK-30857

AliveCommunicationsVLEO
NORAD 58595·PAYLOAD·🇺🇸 United States

Launched Dec 19, 2023 from Cape Canaveral Space Force Station

Loading…

Next Passes (next 24 hours)

TLE

FreshSource: CelesTrak SupGP

Epoch: Sep 14, 2026, 14:45 UTC

1 58595C 23200G   26257.61506944  .00001932  00000+0  70024-4 0  2574
2 58595  42.9999 181.9013 0001547 256.4490 135.9932 15.27561398    16

Track STARLINK-30857 in real time with AllMySat

Download on the App Store